Weather History for Anchorage Merrill, AK

Change the Weather History Date:

Wednesday, October 16, 2013

  Actual Average Record
Temperature  
Mean Temperature 52 °F -  
Max Temperature 59 °F 38 °F 59 °F (2013)
Min Temperature 46 °F 26 °F 12 °F (1997)
Degree Days  
Heating Degree Days 12    
Growing Degree Days 2 (Base 50)    
Moisture  
Dew Point 38 °F    
Average Humidity 55    
Maximum Humidity 80    
Minimum Humidity 39    
Precipitation  
Precipitation 0.00 in - - ()
Sea Level Pressure  
Sea Level Pressure 30.17 in    
Wind  
Wind Speed 7 mph (SW)    
Max Wind Speed 10 mph    
Max Gust Speed 24 mph    
Visibility 10 miles    
Events      
Averages and records for this station are not official NWS values.
T = Trace of Precipitation, MM = Missing Value Source: NWS Daily Summary

Daily Weather History Graph

Daily Weather History Graph

Search for Another Location

Airport:

Trip Planner

Search our weather history database for the weather conditions in past years. The results will help you decide how hot, cold, wet, or windy it might be!

Date:

Astronomy

Oct. 16, 2013 Rise Set
Actual Time 8:45 AM AKDT 6:42 PM AKDT
Civil Twilight 8:01 AM AKDT 7:27 PM AKDT
Nautical Twilight 7:11 AM AKDT 8:16 PM AKDT
Astronomical Twilight 6:20 AM AKDT 9:07 PM AKDT
Moon 5:51 PM AKDT (10/16) 5:52 AM AKDT (10/16)
Length of Visible Light 11h 25m
Length of Day
9h 57m
Waxing Gibbous, 95% of the Moon is Illuminated
Oct 16
Waxing Gibbous
Oct 18
Full
Oct 26
Last Quarter
Nov 3
New
Nov 9
First Quarter

Hourly Weather History & Observations

Time (AKDT) Temp. Dew Point Humidity Pressure Visibility Wind Dir Wind Speed Gust Speed Precip Events Conditions
12:53 AM 59.0 °F 37.0 °F 44% 30.10 in 10.0 mi SSE 8.1 mph 17.3 mph N/A   Mostly Cloudy
1:53 AM 59.0 °F 37.9 °F 46% 30.13 in 10.0 mi South 9.2 mph - N/A   Mostly Cloudy
2:53 AM 57.0 °F 37.0 °F 47% 30.15 in 10.0 mi SSW 9.2 mph - N/A   Mostly Cloudy
3:53 AM 57.9 °F 37.0 °F 46% 30.16 in 10.0 mi SSE 5.8 mph - N/A   Mostly Cloudy
4:53 AM 55.9 °F 37.9 °F 51% 30.17 in 10.0 mi NNE 5.8 mph - N/A   Overcast
5:53 AM 55.0 °F 37.9 °F 53% 30.17 in 10.0 mi Calm Calm - N/A   Overcast
6:53 AM 57.9 °F 36.0 °F 44% 30.17 in 10.0 mi SE 10.4 mph 16.1 mph N/A   Overcast
7:53 AM 57.9 °F 36.0 °F 44% 30.18 in 10.0 mi SSE 8.1 mph 20.7 mph N/A   Overcast
8:53 AM 57.0 °F 36.0 °F 45% 30.20 in 10.0 mi SSE 6.9 mph - N/A   Mostly Cloudy
9:53 AM 59.0 °F 35.1 °F 41% 30.19 in 10.0 mi Variable 4.6 mph - N/A   Mostly Cloudy
10:53 AM 57.0 °F 34.0 °F 42% 30.21 in 10.0 mi SSE 10.4 mph - N/A   Mostly Cloudy
11:53 AM 57.0 °F 34.0 °F 42% 30.23 in 10.0 mi South 8.1 mph 16.1 mph N/A   Overcast
12:53 PM 57.9 °F 33.1 °F 39% 30.23 in 10.0 mi SSE 10.4 mph 24.2 mph N/A   Overcast
1:53 PM 57.0 °F 36.0 °F 45% 30.19 in 10.0 mi NW 6.9 mph - 0.00 in   Overcast
2:53 PM 55.9 °F 36.0 °F 47% 30.20 in 10.0 mi North 9.2 mph - N/A   Overcast
3:53 PM 55.0 °F 37.9 °F 53% 30.18 in 10.0 mi North 4.6 mph - N/A   Overcast
4:53 PM 52.0 °F 41.0 °F 66% 30.18 in 10.0 mi WNW 8.1 mph - N/A   Overcast
5:53 PM 52.0 °F 41.0 °F 66% 30.17 in 10.0 mi NNW 6.9 mph - N/A   Overcast
6:53 PM 50.0 °F 41.0 °F 71% 30.17 in 10.0 mi West 3.5 mph - N/A   Mostly Cloudy
7:53 PM 48.9 °F 41.0 °F 74% 30.16 in 10.0 mi WNW 3.5 mph - N/A   Overcast
8:53 PM 48.0 °F 41.0 °F 77% 30.15 in 10.0 mi WNW 3.5 mph - N/A   Mostly Cloudy
9:53 PM 46.9 °F 41.0 °F 80% 30.15 in 10.0 mi Calm Calm - N/A   Overcast
10:53 PM 46.9 °F 41.0 °F 80% 30.14 in 10.0 mi NW 4.6 mph - N/A   Overcast
11:53 PM 46.9 °F 41.0 °F 80% 30.14 in 10.0 mi NNW 3.5 mph - N/A   Overcast